• In Hungary
  • List of Countries
  • For 7 days
  • Water Temperature
  • Satellite Maps
  • Weather Map
  • News
  • Weather Widgets
  • user-avatar
    Login

    Hourly Weather Tokyo

    Today, 18 September, Tuesday

    Time Temperature Precipitation Wind Pressure Humidity
    00:00 +26°C° 0.6 mm 2 mps 758 mmHg 71%
    01:00 +26°C° 0.3 mm 2 mps 758 mmHg 71%
    02:00 +26°C° 0.3 mm 2 mps 758 mmHg 71%
    03:00 +26°C° 0 mm 1 mps 758 mmHg 71%
    04:00 +26°C° 0.1 mm 1 mps 759 mmHg 71%
    05:00 +26°C° 0.1 mm 1 mps 759 mmHg 70%
    06:00 +25°C° 0.1 mm 1 mps 759 mmHg 70%
    07:00 +26°C° 0 mm 1 mps 759 mmHg 66%
    08:00 +27°C° 0 mm 1 mps 759 mmHg 62%
    09:00 +28°C° 0 mm 1 mps 759 mmHg 61%
    10:00 +29°C° 0 mm 1 mps 759 mmHg 57%
    11:00 +29°C° 0 mm 2 mps 758 mmHg 54%
    12:00 +30°C° 0 mm 2 mps 758 mmHg 50%
    13:00 +30°C° 0.1 mm 3 mps 758 mmHg 50%
    14:00 +30°C° 0.1 mm 3 mps 758 mmHg 51%
    15:00 +30°C° 0 mm 3 mps 757 mmHg 54%
    16:00 +29°C° 0.5 mm 3 mps 757 mmHg 56%
    17:00 +29°C° 0.5 mm 3 mps 757 mmHg 59%
    18:00 +28°C° 0.5 mm 3 mps 757 mmHg 62%
    19:00 +28°C° 1.3 mm 3 mps 758 mmHg 64%
    20:00 +27°C° 1.3 mm 3 mps 758 mmHg 66%
    21:00 +26°C° 1.3 mm 2 mps 758 mmHg 68%
    22:00 +26°C° 1.1 mm 2 mps 758 mmHg 67%
    23:00 +26°C° 1.1 mm 2 mps 758 mmHg 67%

    Tomorrow, 19 September, Wednesday

    Time Temperature Precipitation Wind Pressure Humidity
    00:00 +26°C° 1.1 mm 2 mps 758 mmHg 66%
    01:00 +26°C° 0.2 mm 2 mps 758 mmHg 64%
    02:00 +26°C° 0.2 mm 3 mps 758 mmHg 63%
    03:00 +25°C° 0.2 mm 3 mps 758 mmHg 61%
    04:00 +25°C° 0 mm 3 mps 758 mmHg 59%
    05:00 +25°C° 0 mm 3 mps 758 mmHg 58%
    06:00 +25°C° 0 mm 3 mps 758 mmHg 56%
    07:00 +26°C° 0 mm 3 mps 758 mmHg 54%
    08:00 +26°C° 0 mm 3 mps 758 mmHg 51%
    09:00 +27°C° 0 mm 3 mps 758 mmHg 49%
    10:00 +28°C° 0 mm 3 mps 758 mmHg 47%
    11:00 +29°C° 0 mm 3 mps 758 mmHg 46%
    12:00 +30°C° 0 mm 2 mps 758 mmHg 44%
    13:00 +30°C° 0.1 mm 3 mps 757 mmHg 45%
    14:00 +30°C° 0.1 mm 3 mps 757 mmHg 46%
    15:00 +30°C° 0.1 mm 3 mps 757 mmHg 47%
    16:00 +29°C° 0.2 mm 4 mps 757 mmHg 52%
    17:00 +28°C° 0.2 mm 4 mps 757 mmHg 56%
    18:00 +27°C° 0.2 mm 4 mps 758 mmHg 60%
    19:00 +27°C° 0.5 mm 4 mps 758 mmHg 63%
    20:00 +26°C° 0.5 mm 3 mps 758 mmHg 65%
    21:00 +26°C° 0.5 mm 3 mps 759 mmHg 67%
    22:00 +26°C° 0.6 mm 3 mps 759 mmHg 68%
    23:00 +26°C° 0.6 mm 3 mps 759 mmHg 68%

    Day after tomorrow, 20 September, Thursday

    Time Temperature Precipitation Wind Pressure Humidity
    00:00 +26°C° 0.6 mm 2 mps 758 mmHg 68%
    01:00 +26°C° 0.4 mm 2 mps 758 mmHg 68%
    02:00 +25°C° 0.4 mm 2 mps 758 mmHg 68%
    03:00 +25°C° 0.4 mm 2 mps 758 mmHg 69%
    04:00 +25°C° 0.2 mm 2 mps 758 mmHg 68%
    05:00 +25°C° 0.2 mm 2 mps 758 mmHg 68%
    06:00 +25°C° 0.2 mm 2 mps 758 mmHg 67%
    07:00 +26°C° 0.1 mm 2 mps 758 mmHg 64%
    08:00 +27°C° 0.1 mm 2 mps 759 mmHg 61%
    09:00 +27°C° 0.1 mm 2 mps 759 mmHg 57%
    10:00 +27°C° 0.4 mm 2 mps 759 mmHg 58%
    11:00 +27°C° 0.4 mm 3 mps 759 mmHg 59%
    12:00 +27°C° 0.4 mm 3 mps 758 mmHg 59%
    13:00 +27°C° 1.3 mm 3 mps 758 mmHg 63%
    14:00 +26°C° 1.3 mm 3 mps 758 mmHg 66%
    15:00 +26°C° 1.3 mm 2 mps 758 mmHg 69%
    16:00 +25°C° 0.5 mm 3 mps 758 mmHg 70%
    17:00 +25°C° 0.5 mm 3 mps 758 mmHg 72%
    18:00 +25°C° 0.5 mm 3 mps 759 mmHg 73%
    19:00 +25°C° 0.3 mm 3 mps 759 mmHg 73%
    20:00 +25°C° 0.3 mm 3 mps 759 mmHg 74%
    21:00 +25°C° 0.3 mm 3 mps 759 mmHg 75%
    22:00 +24°C° 0.6 mm 3 mps 759 mmHg 75%
    23:00 +24°C° 0.6 mm 3 mps 759 mmHg 76%

    21 September, Friday

    Time Temperature Precipitation Wind Pressure Humidity
    00:00 +24°C° 0.6 mm 3 mps 759 mmHg 77%
    01:00 +24°C° 0.6 mm 3 mps 759 mmHg 77%
    02:00 +24°C° 0.6 mm 3 mps 759 mmHg 78%
    03:00 +24°C° 0.6 mm 3 mps 759 mmHg 78%
    04:00 +24°C° 0.2 mm 3 mps 759 mmHg 78%
    05:00 +24°C° 0.2 mm 3 mps 759 mmHg 77%
    06:00 +24°C° 0.2 mm 3 mps 759 mmHg 77%
    07:00 +24°C° 0.4 mm 3 mps 759 mmHg 77%
    08:00 +24°C° 0.4 mm 3 mps 759 mmHg 77%
    09:00 +24°C° 0.4 mm 3 mps 759 mmHg 77%
    10:00 +25°C° 1.3 mm 3 mps 759 mmHg 78%
    11:00 +25°C° 1.3 mm 3 mps 759 mmHg 78%
    12:00 +25°C° 1.3 mm 3 mps 758 mmHg 79%
    13:00 +25°C° 4.4 mm 3 mps 758 mmHg 80%
    14:00 +25°C° 4.4 mm 3 mps 758 mmHg 82%
    15:00 +23°C° 4.4 mm 4 mps 757 mmHg 83%
    16:00 +25°C° 2.3 mm 4 mps 757 mmHg 83%
    17:00 +25°C° 2.3 mm 4 mps 757 mmHg 84%
    18:00 +25°C° 2.3 mm 5 mps 757 mmHg 84%
    19:00 +25°C° 1.5 mm 4 mps 757 mmHg 84%
    20:00 +25°C° 1.5 mm 4 mps 757 mmHg 84%
    21:00 +25°C° 1.5 mm 3 mps 756 mmHg 85%
    22:00 +25°C° 0.3 mm 3 mps 756 mmHg 84%
    23:00 +25°C° 0.3 mm 3 mps 755 mmHg 82%

    22 September, Saturday

    Time Temperature Precipitation Wind Pressure Humidity
    00:00 +25°C° 0.3 mm 3 mps 754 mmHg 81%
    01:00 +25°C° 0 mm 3 mps 754 mmHg 81%
    02:00 +25°C° 0 mm 4 mps 754 mmHg 80%
    03:00 +25°C° 0 mm 4 mps 753 mmHg 80%
    04:00 +26°C° 0.1 mm 5 mps 753 mmHg 80%
    05:00 +26°C° 0.1 mm 5 mps 753 mmHg 81%
    06:00 +26°C° 0.1 mm 5 mps 753 mmHg 81%
    07:00 +28°C° 0 mm 5 mps 753 mmHg 75%
    08:00 +29°C° 0 mm 5 mps 753 mmHg 70%
    09:00 +30°C° 0 mm 5 mps 753 mmHg 64%
    10:00 +33°C° 0 mm 5 mps 753 mmHg 59%
    11:00 +34°C° 0 mm 5 mps 753 mmHg 55%
    12:00 +35°C° 0 mm 5 mps 753 mmHg 50%
    13:00 +35°C° 0 mm 5 mps 753 mmHg 49%
    14:00 +36°C° 0 mm 5 mps 753 mmHg 49%
    15:00 +36°C° 0 mm 5 mps 753 mmHg 49%
    16:00 +35°C° 0.1 mm 4 mps 753 mmHg 51%
    17:00 +34°C° 0.1 mm 4 mps 754 mmHg 54%
    18:00 +33°C° 0.1 mm 3 mps 754 mmHg 56%
    19:00 +31°C° 0.1 mm 3 mps 754 mmHg 58%
    20:00 +31°C° 0.1 mm 2 mps 755 mmHg 61%
    21:00 +30°C° 0.1 mm 2 mps 755 mmHg 63%
    22:00 +30°C° 0 mm 2 mps 755 mmHg 64%
    23:00 +29°C° 0 mm 3 mps 755 mmHg 66%

    23 September, Sunday

    Time Temperature Precipitation Wind Pressure Humidity
    00:00 +29°C° 0 mm 3 mps 755 mmHg 67%
    01:00 +28°C° 0.1 mm 3 mps 755 mmHg 68%
    02:00 +28°C° 0.1 mm 3 mps 755 mmHg 68%
    03:00 +28°C° 0.1 mm 3 mps 755 mmHg 69%
    04:00 +27°C° 0 mm 3 mps 756 mmHg 69%
    05:00 +27°C° 0 mm 3 mps 756 mmHg 68%
    06:00 +27°C° 0 mm 3 mps 756 mmHg 68%
    07:00 +28°C° 0 mm 3 mps 757 mmHg 66%
    08:00 +28°C° 0 mm 2 mps 757 mmHg 64%
    09:00 +29°C° 0 mm 2 mps 757 mmHg 62%
    10:00 +29°C° 0 mm 2 mps 757 mmHg 61%
    11:00 +30°C° 0 mm 2 mps 756 mmHg 60%
    12:00 +31°C° 0 mm 2 mps 756 mmHg 59%
    13:00 +31°C° 0.1 mm 2 mps 756 mmHg 58%
    14:00 +31°C° 0.1 mm 2 mps 756 mmHg 58%
    15:00 +31°C° 0.1 mm 2 mps 756 mmHg 58%
    16:00 +30°C° 0 mm 2 mps 756 mmHg 60%
    17:00 +30°C° 0 mm 2 mps 756 mmHg 62%
    18:00 +29°C° 0 mm 2 mps 757 mmHg 64%
    19:00 +29°C° 0 mm 2 mps 757 mmHg 66%
    20:00 +28°C° 0 mm 2 mps 757 mmHg 68%
    21:00 +28°C° 0 mm 2 mps 757 mmHg 70%
    22:00 +27°C° 0.1 mm 2 mps 757 mmHg 72%
    23:00 +27°C° 0.1 mm 2 mps 757 mmHg 74%
    Show more